| time (UTC) | temp F | wind direction | speed knots | gust knots | rain 1hr in | rain 24hr in | rain mn in | humidity % | barometer mb |
| 20260509000622 | 44 | 225 | 28.7 | 35.6 | 0.00 | 0.00 | 0.00 | 72 | 1013.6 |
| 20260509000112 | 45 | 225 | 20.9 | 29.5 | 0.00 | 0.00 | 0.00 | 72 | 1013.4 |
| 20260508235602 | 45 | 203 | 18.2 | 33.0 | 0.00 | 0.00 | 0.00 | 71 | 1013.2 |
| 20260508235052 | 45 | 203 | 20.9 | 33.0 | 0.00 | 0.00 | 0.00 | 71 | 1012.8 |
| 20260508234543 | 45 | 225 | 20.0 | 33.0 | 0.00 | 0.00 | 0.00 | 72 | 1012.7 |
| 20260508234032 | 45 | 203 | 23.5 | 33.0 | 0.00 | 0.00 | 0.00 | 71 | 1012.6 |
| 20260508233012 | 45 | 203 | 20.0 | 31.3 | 0.00 | 0.00 | 0.00 | 70 | 1012.4 |
| 20260508232501 | 46 | 203 | 26.1 | 31.3 | 0.00 | 0.00 | 0.00 | 70 | 1012.0 |
| 20260508231951 | 46 | 225 | 14.8 | 27.8 | 0.00 | 0.00 | 0.00 | 69 | 1012.0 |
| 20260508231441 | 46 | 203 | 23.5 | 27.8 | 0.00 | 0.00 | 0.00 | 67 | 1011.8 |
| 20260508230421 | 48 | 180 | 20.9 | 26.1 | 0.00 | 0.00 | 0.00 | 62 | 1011.3 |
| 20260508225400 | 49 | 203 | 15.6 | 21.7 | 0.00 | 0.00 | 0.00 | 57 | 1010.9 |
| 20260508224903 | 50 | 180 | 12.2 | 17.4 | 0.00 | 0.00 | 0.00 | 56 | 1010.8 |
| 20260508224341 | 50 | 180 | 11.3 | 19.1 | 0.00 | 0.00 | 0.00 | 55 | 1010.4 |
| 20260508223830 | 50 | 158 | 9.6 | 19.1 | 0.00 | 0.00 | 0.00 | 55 | 1010.4 |
| 20260508222810 | 52 | 180 | 13.0 | 19.1 | 0.00 | 0.00 | 0.00 | 52 | 1010.0 |
| 20260508222300 | 52 | 203 | 7.0 | 11.3 | 0.00 | 0.00 | 0.00 | 52 | 1009.8 |
| 20260508221750 | 52 | 180 | 6.1 | 12.2 | 0.00 | 0.00 | 0.00 | 52 | 1009.8 |
| 20260508221240 | 52 | 180 | 5.2 | 12.2 | 0.00 | 0.00 | 0.00 | 52 | 1009.6 |
| 20260508220729 | 52 | 180 | 6.1 | 9.6 | 0.00 | 0.00 | 0.00 | 52 | 1009.6 |
| 20260508220220 | 52 | 180 | 7.0 | 9.6 | 0.00 | 0.00 | 0.00 | 52 | 1009.2 |
| 20260508215710 | 52 | 158 | 4.3 | 9.6 | 0.00 | 0.00 | 0.00 | 52 | 1009.2 |
| 20260508215159 | 53 | 158 | 3.5 | 7.0 | 0.00 | 0.00 | 0.00 | 51 | 1008.9 |
| 20260508214139 | 53 | 180 | 0.9 | 6.1 | 0.00 | 0.00 | 0.00 | 50 | 1008.8 |
| 20260508213629 | 53 | 158 | 1.7 | 7.8 | 0.00 | 0.00 | 0.00 | 50 | 1008.8 |
| 20260508212608 | 54 | 180 | 4.3 | 9.6 | 0.00 | 0.00 | 0.00 | 48 | 1008.8 |
| 20260508212059 | 54 | 180 | 6.1 | 9.6 | 0.00 | 0.00 | 0.00 | 48 | 1008.4 |
| 20260508211549 | 55 | 158 | 4.3 | 9.6 | 0.00 | 0.00 | 0.00 | 47 | 1008.4 |
| 20260508211038 | 55 | 180 | 5.2 | 9.6 | 0.00 | 0.00 | 0.00 | 46 | 1008.2 |
| 20260508210528 | 55 | 158 | 7.0 | 9.6 | 0.00 | 0.00 | 0.00 | 46 | 1008.2 |
| 20260508210018 | 56 | 158 | 5.2 | 9.6 | 0.00 | 0.00 | 0.00 | 45 | 1008.0 |
| 20260508205508 | 56 | 158 | 7.0 | 9.6 | 0.00 | 0.00 | 0.00 | 44 | 1007.8 |
| 20260508204957 | 56 | 158 | 4.3 | 9.6 | 0.00 | 0.00 | 0.00 | 44 | 1007.9 |
| 20260508204448 | 57 | 158 | 5.2 | 9.6 | 0.00 | 0.00 | 0.00 | 42 | 1008.1 |
| 20260508203938 | 57 | 158 | 6.1 | 9.6 | 0.00 | 0.00 | 0.00 | 42 | 1008.1 |
| 20260508202407 | 58 | 180 | 3.5 | 9.6 | 0.00 | 0.00 | 0.00 | 40 | 1007.8 |
| 20260508201857 | 57 | 158 | 3.5 | 9.6 | 0.00 | 0.00 | 0.00 | 43 | 1007.7 |
| 20260508200838 | 58 | 180 | 7.0 | 11.3 | 0.00 | 0.00 | 0.00 | 41 | 1008.1 |
| 20260508195308 | 58 | 180 | 7.0 | 12.2 | 0.00 | 0.00 | 0.00 | 41 | 1008.1 |
| 20260508194757 | 59 | 180 | 7.8 | 12.2 | 0.00 | 0.00 | 0.00 | 40 | 1008.1 |
| 20260508194246 | 59 | 203 | 8.7 | 12.2 | 0.00 | 0.00 | 0.00 | 40 | 1008.0 |
| 20260508193737 | 59 | 180 | 7.8 | 9.6 | 0.00 | 0.00 | 0.00 | 40 | 1008.1 |
| 20260508193226 | 60 | 225 | 4.3 | 12.2 | 0.00 | 0.00 | 0.00 | 40 | 1007.8 |
| 20260508190126 | 59 | 203 | 7.0 | 17.4 | 0.00 | 0.00 | 0.00 | 41 | 1007.8 |
| 20260508185105 | 60 | 203 | 7.0 | 13.0 | 0.00 | 0.00 | 0.00 | 41 | 1008.4 |
| 20260508184556 | 58 | 225 | 7.8 | 13.0 | 0.00 | 0.00 | 0.00 | 41 | 1008.3 |
| 20260508184045 | 58 | 203 | 7.0 | 14.8 | 0.00 | 0.00 | 0.00 | 42 | 1008.3 |
| 20260508183535 | 60 | 203 | 7.0 | 14.8 | 0.00 | 0.00 | 0.00 | 40 | 1008.4 |
| 20260508183024 | 59 | 203 | 7.0 | 13.0 | 0.00 | 0.00 | 0.00 | 41 | 1008.2 |
| 20260508182515 | 59 | 203 | 6.1 | 12.2 | 0.00 | 0.00 | 0.00 | 41 | 1008.4 |
| 20260508181454 | 58 | 203 | 8.7 | 13.9 | 0.00 | 0.00 | 0.00 | 42 | 1008.4 |
| 20260508180435 | 59 | 180 | 10.4 | 18.2 | 0.00 | 0.00 | 0.00 | 42 | 1008.6 |
| 20260508175925 | 59 | 203 | 7.0 | 18.2 | 0.00 | 0.00 | 0.00 | 42 | 1008.9 |
| 20260508175414 | 59 | 203 | 14.8 | 18.2 | 0.00 | 0.00 | 0.00 | 41 | 1008.6 |
| 20260508174904 | 58 | 225 | 7.8 | 17.4 | 0.00 | 0.00 | 0.00 | 42 | 1009.0 |
| 20260508173843 | 59 | 203 | 7.0 | 19.1 | 0.00 | 0.00 | 0.00 | 42 | 1009.2 |
| 20260508173333 | 58 | 225 | 11.3 | 19.1 | 0.00 | 0.00 | 0.00 | 43 | 1009.3 |
| 20260508172824 | 58 | 248 | 15.6 | 19.1 | 0.00 | 0.00 | 0.00 | 43 | 1009.2 |
| 20260508172313 | 58 | 225 | 7.0 | 15.6 | 0.00 | 0.00 | 0.00 | 43 | 1009.6 |
| 20260508171804 | 58 | 180 | 9.6 | 26.1 | 0.00 | 0.00 | 0.00 | 42 | 1009.6 |
| 20260508170743 | 57 | 225 | 17.4 | 21.7 | 0.00 | 0.00 | 0.00 | 43 | 1009.8 |
| 20260508170233 | 57 | 203 | 13.0 | 18.2 | 0.00 | 0.00 | 0.00 | 43 | 1010.0 |
| 20260508165723 | 58 | 225 | 13.0 | 18.2 | 0.00 | 0.00 | 0.00 | 43 | 1010.1 |
| 20260508165213 | 58 | 225 | 11.3 | 20.9 | 0.00 | 0.00 | 0.00 | 43 | 1010.2 |
| 20260508164702 | 57 | 203 | 14.8 | 20.9 | 0.00 | 0.00 | 0.00 | 44 | 1010.2 |
| 20260508163642 | 57 | 225 | 10.4 | 25.2 | 0.00 | 0.00 | 0.00 | 44 | 1010.3 |
| 20260508162623 | 56 | 225 | 15.6 | 25.2 | 0.00 | 0.00 | 0.00 | 41 | 1010.4 |
| 20260508162114 | 57 | 225 | 18.2 | 26.1 | 0.00 | 0.00 | 0.00 | 41 | 1010.4 |
| 20260508161602 | 57 | 225 | 18.2 | 26.1 | 0.00 | 0.00 | 0.00 | 40 | 1010.5 |
| 20260508161052 | 56 | 225 | 18.2 | 27.8 | 0.00 | 0.00 | 0.00 | 41 | 1010.4 |
| 20260508160543 | 56 | 203 | 16.5 | 29.5 | 0.00 | 0.00 | 0.00 | 42 | 1010.5 |
| 20260508160031 | 57 | 225 | 18.2 | 29.5 | 0.00 | 0.00 | 0.00 | 40 | 1010.7 |
| 20260508155521 | 56 | 203 | 18.2 | 23.5 | 0.00 | 0.00 | 0.00 | 41 | 1010.7 |
| 20260508155011 | 57 | 225 | 14.8 | 23.5 | 0.00 | 0.00 | 0.00 | 39 | 1010.7 |
| 20260508154501 | 56 | 203 | 13.9 | 25.2 | 0.00 | 0.00 | 0.00 | 38 | 1010.7 |
| 20260508153952 | 55 | 203 | 17.4 | 26.9 | 0.00 | 0.00 | 0.00 | 38 | 1010.9 |
| 20260508153441 | 55 | 203 | 16.5 | 26.9 | 0.00 | 0.00 | 0.00 | 39 | 1010.8 |
| 20260508152931 | 55 | 225 | 22.6 | 26.9 | 0.00 | 0.00 | 0.00 | 38 | 1010.8 |
| 20260508151401 | 54 | 203 | 20.9 | 26.9 | 0.00 | 0.00 | 0.00 | 37 | 1011.1 |
| 20260508150850 | 54 | 203 | 19.1 | 29.5 | 0.00 | 0.00 | 0.00 | 36 | 1011.2 |
| 20260508150340 | 54 | 203 | 21.7 | 29.5 | 0.00 | 0.00 | 0.00 | 36 | 1011.5 |
| 20260508145830 | 54 | 203 | 16.5 | 26.9 | 0.00 | 0.00 | 0.00 | 36 | 1011.4 |
| 20260508145320 | 54 | 225 | 16.5 | 26.9 | 0.00 | 0.00 | 0.00 | 36 | 1011.2 |
| 20260508144810 | 54 | 225 | 18.2 | 29.5 | 0.00 | 0.00 | 0.00 | 35 | 1011.1 |
| 20260508144300 | 53 | 225 | 20.9 | 29.5 | 0.00 | 0.00 | 0.00 | 35 | 1011.3 |
| 20260508143750 | 53 | 225 | 18.2 | 29.5 | 0.00 | 0.00 | 0.00 | 34 | 1011.5 |
| 20260508143239 | 52 | 180 | 20.0 | 25.2 | 0.00 | 0.00 | 0.00 | 35 | 1011.7 |
| 20260508142730 | 52 | 203 | 18.2 | 23.5 | 0.00 | 0.00 | 0.00 | 36 | 1011.8 |
| 20260508142220 | 52 | 180 | 17.4 | 26.1 | 0.00 | 0.00 | 0.00 | 35 | 1011.8 |
| 20260508141712 | 52 | 203 | 18.2 | 26.1 | 0.00 | 0.00 | 0.00 | 35 | 1011.8 |
| 20260508140649 | 52 | 203 | 14.8 | 26.1 | 0.00 | 0.00 | 0.00 | 34 | 1012.0 |
| 20260508135629 | 51 | 225 | 20.9 | 26.9 | 0.00 | 0.00 | 0.00 | 35 | 1011.9 |
| 20260508135119 | 51 | 203 | 18.2 | 27.8 | 0.00 | 0.00 | 0.00 | 35 | 1012.0 |
| 20260508134609 | 51 | 225 | 16.5 | 31.3 | 0.00 | 0.00 | 0.00 | 35 | 1011.8 |
| 20260508134059 | 48 | 203 | 22.6 | 31.3 | 0.00 | 0.00 | 0.00 | 36 | 1011.9 |
| 20260508133548 | 48 | 225 | 18.2 | 29.5 | 0.00 | 0.00 | 0.00 | 36 | 1011.9 |
| 20260508133041 | 48 | 225 | 20.9 | 29.5 | 0.00 | 0.00 | 0.00 | 36 | 1011.6 |
| 20260508132528 | 48 | 203 | 19.1 | 29.5 | 0.00 | 0.00 | 0.00 | 36 | 1011.7 |
| 20260508132018 | 49 | 225 | 20.0 | 29.5 | 0.00 | 0.00 | 0.00 | 36 | 1011.7 |
| 20260508131512 | 49 | 225 | 19.1 | 26.9 | 0.00 | 0.00 | 0.00 | 37 | 1011.6 |
| 20260508130958 | 49 | 225 | 20.9 | 26.9 | 0.00 | 0.00 | 0.00 | 37 | 1011.5 |
| 20260508130448 | 49 | 225 | 14.8 | 26.9 | 0.00 | 0.00 | 0.00 | 38 | 1011.4 |
| 20260508125938 | 48 | 203 | 16.5 | 26.1 | 0.00 | 0.00 | 0.00 | 37 | 1011.7 |
| 20260508124917 | 47 | 225 | 13.0 | 25.2 | 0.00 | 0.00 | 0.00 | 42 | 1011.7 |
| 20260508123859 | 47 | 225 | 16.5 | 25.2 | 0.00 | 0.00 | 0.00 | 44 | 1011.9 |
| 20260508123347 | 46 | 225 | 15.6 | 20.9 | 0.00 | 0.00 | 0.00 | 46 | 1012.0 |
| 20260508122838 | 45 | 248 | 13.9 | 20.0 | 0.00 | 0.00 | 0.00 | 48 | 1011.8 |
| 20260508122327 | 46 | 225 | 13.0 | 17.4 | 0.00 | 0.00 | 0.00 | 46 | 1012.0 |
| 20260508121817 | 45 | 248 | 10.4 | 19.1 | 0.00 | 0.00 | 0.00 | 49 | 1012.0 |
| 20260508121309 | 44 | 248 | 7.8 | 20.0 | 0.00 | 0.00 | 0.00 | 49 | 1012.1 |
| 20260508120757 | 44 | 248 | 13.0 | 20.0 | 0.00 | 0.00 | 0.00 | 48 | 1012.1 |
| 20260508120247 | 44 | 225 | 12.2 | 19.1 | 0.00 | 0.00 | 0.00 | 50 | 1012.0 |
| 20260508115736 | 44 | 225 | 12.2 | 19.1 | 0.00 | 0.00 | 0.00 | 49 | 1011.8 |
| 20260508115226 | 44 | 225 | 9.6 | 18.2 | 0.00 | 0.00 | 0.00 | 49 | 1011.9 |
| 20260508114716 | 44 | 225 | 10.4 | 18.2 | 0.00 | 0.00 | 0.00 | 50 | 1011.7 |
| 20260508114206 | 43 | 225 | 9.6 | 15.6 | 0.00 | 0.00 | 0.00 | 52 | 1011.7 |
| 20260508113656 | 43 | 248 | 11.3 | 15.6 | 0.00 | 0.00 | 0.00 | 52 | 1011.5 |
| 20260508113145 | 43 | 225 | 12.2 | 14.8 | 0.00 | 0.00 | 0.00 | 52 | 1011.7 |
| 20260508112126 | 42 | 225 | 8.7 | 15.6 | 0.00 | 0.00 | 0.00 | 52 | 1011.6 |
| 20260508111616 | 42 | 225 | 9.6 | 19.1 | 0.00 | 0.00 | 0.00 | 51 | 1011.8 |
| 20260508110556 | 43 | 225 | 10.4 | 21.7 | 0.00 | 0.00 | 0.00 | 50 | 1011.7 |
| 20260508110047 | 43 | 225 | 13.0 | 21.7 | 0.00 | 0.00 | 0.00 | 50 | 1011.7 |
| 20260508105535 | 43 | 225 | 14.8 | 20.0 | 0.00 | 0.00 | 0.00 | 50 | 1011.7 |
| 20260508105025 | 43 | 225 | 13.0 | 21.7 | 0.00 | 0.00 | 0.00 | 51 | 1011.5 |
| 20260508104009 | 43 | 225 | 12.2 | 19.1 | 0.00 | 0.00 | 0.00 | 51 | 1011.4 |
| 20260508103455 | 43 | 225 | 13.9 | 20.0 | 0.00 | 0.00 | 0.00 | 51 | 1011.5 |
| 20260508102944 | 42 | 225 | 13.0 | 20.0 | 0.00 | 0.00 | 0.00 | 52 | 1011.6 |
| 20260508101925 | 42 | 225 | 11.3 | 21.7 | 0.00 | 0.00 | 0.00 | 53 | 1011.6 |
| 20260508101414 | 42 | 225 | 13.0 | 20.9 | 0.00 | 0.00 | 0.00 | 53 | 1011.5 |
| 20260508100354 | 42 | 225 | 11.3 | 21.7 | 0.00 | 0.00 | 0.00 | 53 | 1011.4 |
| 20260508095333 | 42 | 225 | 16.5 | 20.9 | 0.00 | 0.00 | 0.00 | 52 | 1011.3 |
| 20260508094823 | 42 | 225 | 12.2 | 20.9 | 0.00 | 0.00 | 0.00 | 53 | 1011.4 |
| 20260508094322 | 42 | 225 | 13.0 | 20.0 | 0.00 | 0.00 | 0.00 | 52 | 1011.1 |
| 20260508093803 | 42 | 225 | 14.8 | 19.1 | 0.00 | 0.00 | 0.00 | 52 | 1011.3 |
| 20260508093253 | 42 | 248 | 11.3 | 18.2 | 0.00 | 0.00 | 0.00 | 52 | 1011.3 |
| 20260508092743 | 42 | 225 | 13.0 | 18.2 | 0.00 | 0.00 | 0.00 | 51 | 1011.3 |
| 20260508092233 | 42 | 225 | 10.4 | 19.1 | 0.00 | 0.00 | 0.00 | 51 | 1011.2 |
| 20260508091212 | 43 | 225 | 13.0 | 20.9 | 0.00 | 0.00 | 0.00 | 51 | 1011.2 |
| 20260508090152 | 43 | 225 | 13.0 | 19.1 | 0.00 | 0.00 | 0.00 | 49 | 1011.4 |
| 20260508085644 | 43 | 225 | 13.0 | 19.1 | 0.00 | 0.00 | 0.00 | 49 | 1011.2 |
| 20260508085133 | 43 | 248 | 12.2 | 23.5 | 0.00 | 0.00 | 0.00 | 49 | 1011.2 |
| 20260508084623 | 43 | 225 | 12.2 | 23.5 | 0.00 | 0.00 | 0.00 | 49 | 1011.1 |
| 20260508084112 | 43 | 203 | 13.0 | 19.1 | 0.00 | 0.00 | 0.00 | 49 | 1010.9 |
| 20260508083602 | 43 | 225 | 12.2 | 19.1 | 0.00 | 0.00 | 0.00 | 49 | 1011.0 |
| 20260508082032 | 44 | 225 | 13.0 | 20.0 | 0.00 | 0.00 | 0.00 | 49 | 1010.9 |
| 20260508081522 | 44 | 225 | 13.9 | 20.0 | 0.00 | 0.00 | 0.00 | 48 | 1010.9 |
| 20260508081012 | 43 | 203 | 13.0 | 20.0 | 0.00 | 0.00 | 0.00 | 49 | 1010.9 |
| 20260508080502 | 43 | 225 | 12.2 | 18.2 | 0.00 | 0.00 | 0.00 | 49 | 1010.9 |
| 20260508075951 | 43 | 225 | 10.4 | 20.0 | 0.00 | 0.00 | 0.00 | 49 | 1010.8 |
| 20260508075441 | 43 | 225 | 13.0 | 20.0 | 0.00 | 0.00 | 0.00 | 49 | 1010.8 |
| 20260508074931 | 43 | 225 | 8.7 | 15.6 | 0.00 | 0.00 | 0.00 | 50 | 1010.7 |
| 20260508074421 | 43 | 225 | 10.4 | 17.4 | 0.00 | 0.00 | 0.00 | 50 | 1010.5 |
| 20260508073911 | 43 | 203 | 12.2 | 18.2 | 0.00 | 0.00 | 0.00 | 49 | 1010.5 |
| 20260508073400 | 43 | 225 | 9.6 | 19.1 | 0.00 | 0.00 | 0.00 | 50 | 1010.5 |
| 20260508072851 | 43 | 203 | 11.3 | 19.1 | 0.00 | 0.00 | 0.00 | 49 | 1010.8 |
| 20260508072341 | 43 | 225 | 10.4 | 19.1 | 0.00 | 0.00 | 0.00 | 49 | 1010.8 |
| 20260508071830 | 44 | 225 | 10.4 | 20.0 | 0.00 | 0.00 | 0.00 | 48 | 1010.7 |
| 20260508071320 | 44 | 225 | 13.0 | 20.0 | 0.00 | 0.00 | 0.00 | 47 | 1010.8 |
| 20260508065750 | 44 | 248 | 13.0 | 20.9 | 0.00 | 0.00 | 0.00 | 46 | 1010.9 |
| 20260508065239 | 44 | 225 | 14.8 | 20.9 | 0.00 | 0.00 | 0.00 | 46 | 1010.9 |
| 20260508064729 | 44 | 203 | 13.0 | 21.7 | 0.00 | 0.00 | 0.00 | 47 | 1010.5 |
| 20260508063709 | 44 | 225 | 13.0 | 20.0 | 0.00 | 0.00 | 0.00 | 46 | 1010.8 |
| 20260508063159 | 44 | 203 | 13.9 | 19.1 | 0.00 | 0.00 | 0.00 | 47 | 1010.8 |
| 20260508062649 | 44 | 225 | 12.2 | 20.9 | 0.00 | 0.00 | 0.00 | 47 | 1010.7 |
| 20260508062139 | 44 | 203 | 13.0 | 20.9 | 0.00 | 0.00 | 0.00 | 47 | 1010.5 |
| 20260508061629 | 44 | 203 | 9.6 | 18.2 | 0.00 | 0.00 | 0.00 | 47 | 1010.8 |
| 20260508061119 | 44 | 225 | 11.3 | 20.0 | 0.00 | 0.00 | 0.00 | 47 | 1010.5 |
| 20260508060609 | 44 | 225 | 13.9 | 20.0 | 0.00 | 0.00 | 0.00 | 46 | 1010.9 |
| 20260508055549 | 44 | 225 | 8.7 | 17.4 | 0.00 | 0.00 | 0.00 | 47 | 1011.1 |
| 20260508055038 | 44 | 203 | 12.2 | 17.4 | 0.00 | 0.00 | 0.00 | 45 | 1011.1 |
| 20260508054528 | 44 | 225 | 9.6 | 17.4 | 0.00 | 0.00 | 0.00 | 45 | 1011.2 |
| 20260508054018 | 44 | 225 | 9.6 | 17.4 | 0.00 | 0.00 | 0.00 | 45 | 1011.3 |
| 20260508053507 | 45 | 225 | 9.6 | 15.6 | 0.00 | 0.00 | 0.00 | 45 | 1011.4 |
| 20260508052958 | 45 | 225 | 10.4 | 15.6 | 0.00 | 0.00 | 0.00 | 45 | 1011.6 |
| 20260508052447 | 45 | 225 | 11.3 | 15.6 | 0.00 | 0.00 | 0.00 | 45 | 1011.6 |
| 20260508051937 | 44 | 225 | 8.7 | 13.9 | 0.00 | 0.00 | 0.00 | 46 | 1011.6 |
| 20260508051430 | 44 | 225 | 7.8 | 13.9 | 0.00 | 0.00 | 0.00 | 46 | 1011.7 |
| 20260508050918 | 44 | 225 | 6.1 | 11.3 | 0.00 | 0.00 | 0.00 | 47 | 1011.8 |
| 20260508050408 | 44 | 225 | 4.3 | 0.0 | 0.00 | 0.00 | 0.00 | 47 | 1012.2 |
| 20260508050158 | 43 | 225 | 5.2 | 0.0 | 0.00 | 0.00 | 0.00 | 47 | 1012.1 |
| 20260508045028 | 44 | 225 | 4.3 | 11.3 | 0.00 | 0.00 | 0.00 | 46 | 1012.1 |
| 20260508044527 | 44 | 225 | 7.0 | 14.8 | 0.00 | 0.00 | 0.00 | 45 | 1012.7 |
| 20260508044007 | 45 | 225 | 7.0 | 15.6 | 0.00 | 0.00 | 0.00 | 44 | 1012.3 |
| 20260508043457 | 46 | 203 | 9.6 | 15.6 | 0.00 | 0.00 | 0.00 | 43 | 1012.1 |
| 20260508042947 | 45 | 225 | 8.7 | 13.9 | 0.00 | 0.00 | 0.00 | 44 | 1012.2 |
| 20260508042437 | 45 | 225 | 7.8 | 12.2 | 0.00 | 0.00 | 0.00 | 44 | 1012.3 |
| 20260508041417 | 46 | 225 | 9.6 | 15.6 | 0.00 | 0.00 | 0.00 | 43 | 1012.6 |
| 20260508040907 | 46 | 203 | 7.8 | 13.9 | 0.00 | 0.00 | 0.00 | 43 | 1012.4 |
| 20260508040356 | 46 | 225 | 9.6 | 14.8 | 0.00 | 0.00 | 0.00 | 43 | 1012.3 |
| 20260508035847 | 46 | 225 | 9.6 | 14.8 | 0.00 | 0.00 | 0.00 | 43 | 1012.2 |
| 20260508035336 | 46 | 225 | 9.6 | 15.6 | 0.00 | 0.00 | 0.00 | 42 | 1012.1 |
| 20260508034826 | 47 | 203 | 12.2 | 18.2 | 0.00 | 0.00 | 0.00 | 41 | 1012.2 |
| 20260508034317 | 47 | 203 | 12.2 | 18.2 | 0.00 | 0.00 | 0.00 | 40 | 1011.9 |
| 20260508033806 | 47 | 225 | 9.6 | 13.9 | 0.00 | 0.00 | 0.00 | 39 | 1011.9 |
| 20260508033256 | 48 | 225 | 9.6 | 17.4 | 0.00 | 0.00 | 0.00 | 39 | 1011.9 |
| 20260508032747 | 48 | 225 | 11.3 | 17.4 | 0.00 | 0.00 | 0.00 | 38 | 1011.8 |
| 20260508031727 | 49 | 225 | 11.3 | 17.4 | 0.00 | 0.00 | 0.00 | 36 | 1011.8 |
| 20260508031216 | 49 | 225 | 13.0 | 17.4 | 0.00 | 0.00 | 0.00 | 35 | 1011.7 |
| 20260508030706 | 48 | 225 | 9.6 | 13.9 | 0.00 | 0.00 | 0.00 | 37 | 1011.6 |
| 20260508030155 | 47 | 248 | 7.8 | 13.0 | 0.00 | 0.00 | 0.00 | 39 | 1011.3 |
| 20260508025135 | 46 | 248 | 6.1 | 11.3 | 0.00 | 0.00 | 0.00 | 41 | 1011.2 |
| 20260508024625 | 46 | 248 | 6.1 | 9.6 | 0.00 | 0.00 | 0.00 | 41 | 1011.1 |
| 20260508024115 | 46 | 248 | 7.0 | 9.6 | 0.00 | 0.00 | 0.00 | 41 | 1011.0 |
| 20260508023604 | 47 | 248 | 4.3 | 9.6 | 0.00 | 0.00 | 0.00 | 40 | 1011.0 |
| 20260508023055 | 47 | 225 | 5.2 | 11.3 | 0.00 | 0.00 | 0.00 | 39 | 1011.1 |
| 20260508022544 | 47 | 248 | 5.2 | 11.3 | 0.00 | 0.00 | 0.00 | 39 | 1010.8 |
| 20260508022035 | 47 | 270 | 1.7 | 7.8 | 0.00 | 0.00 | 0.00 | 41 | 1011.0 |
| 20260508021525 | 47 | 248 | 3.5 | 7.8 | 0.00 | 0.00 | 0.00 | 41 | 1010.7 |
| 20260508021014 | 46 | 293 | 0.9 | 6.1 | 0.00 | 0.00 | 0.00 | 42 | 1010.4 |
| 20260508020504 | 46 | 270 | 1.7 | 6.1 | 0.00 | 0.00 | 0.00 | 42 | 1010.3 |
| 20260508015954 | 46 | 270 | 0.9 | 6.1 | 0.00 | 0.00 | 0.00 | 43 | 1010.1 |
| 20260508015443 | 46 | 270 | 0.9 | 7.0 | 0.00 | 0.00 | 0.00 | 43 | 1010.2 |
| 20260508014934 | 46 | 248 | 0.0 | 7.0 | 0.00 | 0.00 | 0.00 | 42 | 1009.8 |
| 20260508014423 | 46 | 248 | 0.9 | 7.0 | 0.00 | 0.00 | 0.00 | 43 | 1009.9 |
| 20260508013913 | 46 | 248 | 3.5 | 7.0 | 0.00 | 0.00 | 0.00 | 43 | 1009.4 |
| 20260508013403 | 46 | 248 | 3.5 | 7.8 | 0.00 | 0.00 | 0.00 | 44 | 1009.0 |
| 20260508011323 | 44 | 248 | 3.5 | 7.0 | 0.00 | 0.00 | 0.00 | 46 | 1009.2 |
| 20260508010813 | 42 | 248 | 0.9 | 3.5 | 0.00 | 0.00 | 0.00 | 49 | 1009.1 |
| 20260508010302 | 42 | 270 | 0.0 | 6.1 | 0.00 | 0.00 | 0.00 | 50 | 1009.1 |
| 20260508005752 | 44 | 270 | 0.9 | 9.6 | 0.00 | 0.00 | 0.00 | 45 | 1009.3 |
| 20260508005243 | 44 | 248 | 5.2 | 9.6 | 0.00 | 0.00 | 0.00 | 46 | 1009.2 |
| 20260508004732 | 40 | 203 | 2.6 | 5.2 | 0.00 | 0.00 | 0.00 | 53 | 1008.9 |
| 20260508004225 | 36 | 180 | 0.0 | 3.5 | 0.00 | 0.00 | 0.00 | 59 | 1008.9 |
| 20260508003712 | 38 | 180 | 0.0 | 1.7 | 0.00 | 0.00 | 0.00 | 56 | 1008.5 |
| 20260508003202 | 41 | 270 | 0.0 | 3.5 | 0.00 | 0.00 | 0.00 | 50 | 1008.8 |
| 20260508002651 | 40 | 293 | 0.9 | 3.5 | 0.00 | 0.00 | 0.00 | 52 | 1008.9 |
| 20260508001121 | 42 | 270 | 0.0 | 1.7 | 0.00 | 0.00 | 0.00 | 48 | 1008.6 |